Location: Chuathbaluk
(61.5726°N, 159.2454°W)
Time: 16:16:53
(UTC+00:00)

NOAA 15 - Pass Details

Date: 20 January 2021
Orbit: 798 x 812 km, 98.7° (Epoch: 05 March)

Event Time Altitude Azimuth Distance (km) Brightness Sun altitude
Rises 18:10:26 0° 19° (NNE) 3,341 7.7 -8.2°
Reaches altitude 10° 18:12:52 10° 24° (NNE) 2,408 7.1 -8.0°
Maximum altitude 18:18:03 50° 101° (E) 1,025 5.7 -7.4°
Drops below altitude 10° 18:23:13 10° 176° (S) 2,399 7.6 -6.9°
Sets 18:25:37 0° 182° (S) 3,328 8.2 -6.6°
